FW1225 Weather Reports


time (UTC)temp
C
wind
direction
speed
KPH
gust
KPH
rain 1hr
cm
rain 24hr
cm
rain mn
cm
humidity
%
barometer
mb
20211017150452 15 340 3.2 11.3 0.00 0.00 0.00 53 998.9
20211017144452 14 41 4.8 12.9 0.00 0.00 0.00 55 998.7
20211017143813 13 5 8.0 12.9 0.00 0.00 0.00 57 998.7
20211017143132 12 18 8.0 14.5 0.00 0.00 0.00 58 998.7
20211017142452 12 26 6.4 12.9 0.00 0.00 0.00 61 998.7
20211017141812 12 17 4.8 8.0 0.00 0.00 0.00 63 998.7
20211017141132 12 28 3.2 9.7 0.00 0.00 0.00 68 998.7
20211017135812 11 360 4.8 8.0 0.00 0.00 0.00 70 998.5
20211017135132 10 358 6.4 9.7 0.00 0.00 0.00 74 998.4
20211017134452 10 357 4.8 8.0 0.00 0.00 0.00 75 998.3
20211017133812 10 352 4.8 8.0 0.00 0.00 0.00 77 998.3
20211017131812 8 340 6.4 8.0 0.00 0.00 0.00 82 998.5
20211017131132 8 7 6.4 8.0 0.00 0.00 0.00 81 998.4
20211017125812 8 347 3.2 6.4 0.00 0.00 0.00 85 998.3
20211017125132 8 345 4.8 6.4 0.00 0.00 0.00 85 998.3
20211017122452 6 331 1.6 3.2 0.00 0.00 0.00 100 998.2
20211017121812 6 245 0.0 0.0 0.00 0.00 0.00 100 998.2
20211017121132 6 242 0.0 0.0 0.00 0.00 0.00 100 998.1
20211017115812 5 308 0.0 0.0 0.00 0.00 0.00 100 998.1
20211017115132 5 259 0.0 0.0 0.00 0.00 0.00 99 998.0
20211017113812 5 245 0.0 0.0 0.00 0.00 0.00 99 997.8
20211017113132 5 248 0.0 0.0 0.00 0.00 0.00 99 997.8
20211017112452 6 251 0.0 0.0 0.00 0.00 0.00 99 997.7
20211017111812 6 253 0.0 0.0 0.00 0.00 0.00 99 997.7
20211017111132 6 263 0.0 0.0 0.00 0.00 0.00 99 997.7
20211017105812 6 252 0.0 0.0 0.00 0.00 0.00 99 997.6
20211017104452 6 243 0.0 0.0 0.00 0.00 0.00 98 997.6
20211017103813 6 231 0.0 0.0 0.00 0.00 0.00 98 997.6
20211017103132 6 263 0.0 0.0 0.00 0.00 0.00 98 997.5
20211017101812 6 267 0.0 0.0 0.00 0.00 0.00 98 997.4
20211017100452 6 245 0.0 0.0 0.00 0.00 0.00 98 997.3
20211017095812 6 258 0.0 0.0 0.00 0.00 0.00 98 997.3
20211017095132 6 268 0.0 0.0 0.00 0.00 0.00 98 997.3
20211017093132 6 257 0.0 1.6 0.00 0.00 0.00 97 997.2
20211017092452 6 218 0.0 3.2 0.00 0.00 0.00 97 997.2
20211017091812 6 224 1.6 3.2 0.00 0.00 0.00 97 997.1
20211017090452 6 216 0.0 0.0 0.00 0.00 0.00 97 996.9
20211017083812 6 276 0.0 0.0 0.00 0.00 0.00 95 996.9
20211017081132 7 235 0.0 0.0 0.00 0.00 0.00 95 996.8
20211017080452 7 249 0.0 1.6 0.00 0.00 0.00 94 996.9
20211017075812 7 187 0.0 1.6 0.00 0.00 0.00 93 997.0
20211017072452 8 92 0.0 3.2 0.00 0.00 0.00 85 997.0
20211017071132 9 335 3.2 6.4 0.00 0.00 0.00 80 997.0
20211017070452 8 5 4.8 6.4 0.00 0.00 0.00 83 997.0
20211017064452 8 69 4.8 6.4 0.00 0.00 0.00 91 996.8
20211017063132 8 68 1.6 8.0 0.00 0.00 0.00 93 996.8
20211017062453 7 292 3.2 8.0 0.00 0.00 0.00 94 996.8
20211017061812 7 83 0.0 3.2 0.00 0.00 0.00 95 996.8
20211017061132 7 79 3.2 3.2 0.00 0.00 0.00 94 996.8
20211017060452 7 37 0.0 0.0 0.00 0.00 0.00 94 996.8
20211017055812 7 70 0.0 0.0 0.00 0.00 0.00 94 996.7
20211017055132 7 310 0.0 3.2 0.00 0.00 0.00 93 996.6
20211017054453 7 37 1.6 3.2 0.00 0.00 0.00 94 996.6
20211017053132 8 84 0.0 3.2 0.00 0.00 0.00 92 996.6
20211017052452 8 78 1.6 4.8 0.00 0.00 0.00 92 996.5
20211017051133 8 320 0.0 4.8 0.00 0.00 0.00 90 996.6
20211017043812 8 302 0.0 3.2 0.00 0.00 0.66 89 996.6
20211017040452 8 54 0.0 0.0 0.00 0.00 0.66 95 996.7
20211017035812 8 144 0.0 0.0 0.00 0.00 0.66 94 996.6
20211017034452 8 82 0.0 0.0 0.00 0.00 0.66 92 996.6
20211017033132 8 71 0.0 3.2 0.00 0.00 0.66 91 996.7
20211017032452 8 76 3.2 3.2 0.00 0.00 0.66 90 996.7
20211017031812 8 119 0.0 0.0 0.00 0.00 0.66 89 996.7
20211017030453 9 192 0.0 0.0 0.00 0.00 0.66 87 996.7
20211017025812 9 106 0.0 0.0 0.00 0.00 0.66 86 996.6
20211017025132 9 85 0.0 0.0 0.00 0.00 0.66 86 996.6
20211017024452 9 137 0.0 3.2 0.00 0.00 0.66 85 996.5
20211017023813 9 184 0.0 3.2 0.00 0.00 0.66 82 996.4
20211017023132 9 202 0.0 3.2 0.00 0.00 0.66 84 996.3
20211017022452 9 203 0.0 0.0 0.00 0.00 0.66 85 996.2
20211017020452 10 201 0.0 0.0 0.00 0.00 0.66 80 996.2
20211017015812 10 194 0.0 0.0 0.00 0.00 0.66 83 996.2
20211017015132 10 167 0.0 1.6 0.00 0.00 0.66 82 996.2
20211017014452 10 61 0.0 3.2 0.00 0.00 0.66 80 996.2
20211017013812 10 190 1.6 3.2 0.00 0.00 0.66 79 996.1
20211017011812 11 185 0.0 3.2 0.00 0.00 0.66 71 996.0
20211017010452 12 235 1.6 4.8 0.00 0.00 0.66 64 995.9
20211017005812 12 253 1.6 4.8 0.00 0.00 0.66 68 995.9
20211017005132 12 256 1.6 4.8 0.00 0.00 0.66 65 995.8
20211017003812 13 312 3.2 4.8 0.00 0.00 0.66 60 995.7
20211017002452 13 293 1.6 8.0 0.00 0.00 0.66 61 995.8
20211017001133 13 321 4.8 6.4 0.00 0.00 0.66 57 995.6
20211017000452 13 294 3.2 8.0 0.00 0.00 0.66 62 995.6
20211016233812 13 302 1.6 6.4 0.00 0.00 0.66 55 995.2
20211016232452 14 294 3.2 8.0 0.00 0.00 0.66 52 994.9
20211016231812 15 305 1.6 6.4 0.00 0.00 0.66 52 994.9
20211016230452 15 269 3.2 14.5 0.00 0.00 0.66 52 995.0
20211016225133 16 330 4.8 12.9 0.00 0.00 0.66 44 994.9
20211016224452 16 338 8.0 20.9 0.00 0.00 0.66 43 994.8
20211016222452 16 331 11.3 20.9 0.00 0.00 0.66 40 994.9
20211016221812 17 340 14.5 25.7 0.00 0.00 0.66 38 994.8
20211016220452 17 1 8.0 24.1 0.00 0.00 0.66 39 995.0
20211016215812 17 338 12.9 20.9 0.00 0.00 0.66 37 994.9
20211016215132 17 333 9.7 22.5 0.00 0.00 0.66 38 994.8
20211016211132 17 329 6.4 22.5 0.00 0.00 0.66 38 994.7
20211016210452 17 326 12.9 22.5 0.00 0.00 0.66 35 994.7
20211016205132 17 337 14.5 25.7 0.00 0.00 0.66 35 994.8
20211016204452 17 349 14.5 25.7 0.00 0.00 0.66 34 994.8
20211016203812 17 342 12.9 25.7 0.00 0.00 0.66 35 994.9
20211016203133 17 346 9.7 30.6 0.00 0.00 0.66 35 995.1
20211016202452 18 345 11.3 22.5 0.00 0.00 0.66 36 994.9
20211016201812 17 3 9.7 24.1 0.00 0.00 0.66 34 994.7
20211016201132 17 346 14.5 25.7 0.00 0.00 0.66 34 994.7
20211016200452 17 338 16.1 25.7 0.00 0.00 0.66 34 994.8
20211016194452 18 351 9.7 27.4 0.00 0.00 0.66 34 994.6
20211016192452 17 354 19.3 37.0 0.00 0.00 0.66 35 994.7
20211016190452 17 337 14.5 32.2 0.00 0.00 0.66 34 994.9
20211016183812 18 354 9.7 29.0 0.00 0.00 0.66 35 995.1
20211016183132 17 348 17.7 29.0 0.00 0.00 0.66 37 995.1
20211016182452 17 340 11.3 22.5 0.00 0.00 0.66 36 995.1
20211016180452 17 354 12.9 27.4 0.00 0.00 0.66 36 995.5
20211016174452 16 333 22.5 38.6 0.00 0.00 0.66 37 995.2
20211016173812 17 346 17.7 30.6 0.00 0.00 0.66 38 995.5
20211016171813 17 348 16.1 25.7 0.00 0.00 0.66 40 995.8
20211016171132 16 1 16.1 25.7 0.00 0.00 0.66 42 995.8
20211016170452 16 2 14.5 24.1 0.00 0.00 0.66 42 996.0
20211016165133 16 339 17.7 32.2 0.00 0.00 0.66 42 996.0
20211016164452 16 348 16.1 30.6 0.00 0.00 0.66 43 995.9
20211016163812 16 350 17.7 30.6 0.00 0.00 0.66 45 996.0
20211016162452 16 343 16.1 33.8 0.00 0.00 0.66 42 995.8
20211016161812 16 350 17.7 29.0 0.00 0.00 0.66 44 995.7
20211016160452 15 337 22.5 30.6 0.00 0.00 0.66 44 995.9
20211016155812 15 328 17.7 33.8 0.00 0.00 0.66 47 995.6
20211016152452 15 344 20.9 32.2 0.00 0.00 0.66 51 995.4
20211016151812 15 340 17.7 32.2 0.00 0.00 0.66 51 995.3